Doylestown, PA

1:41 PM EST on December 08, 2019 (GMT -0500)
Doylestown

Weather History for KDYL - October, 2019

Change the Weather History Date:

Friday, October 11, 2019

  Actual Average (WUND) Record (WUND)
Temperature  
Mean Temperature 59 °F -  
Max Temperature 70 °F - - (-1)
Min Temperature 50 °F - - (-1)
Degree Days  
Heating Degree Days 6    
Growing Degree Days 9 (Base 50)    
Moisture  
Dew Point 39 °F    
Average Humidity 49    
Maximum Humidity 74    
Minimum Humidity 40    
Precipitation  
Precipitation 0.00 in - - ()
Sea Level Pressure  
Sea Level Pressure 30.10 in    
Wind  
Wind Speed 7 mph (NNE)    
Max Wind Speed 12 mph    
Max Gust Speed 21 mph    
Visibility 10 miles    
Events      
Averages and records for this station are not official NWS values.
T = Trace of Precipitation, MM = Missing Value Source: NWS Daily Summary

Daily Weather History Graph

Daily Weather History Graph

Search for Another Location

Airport or City:

Astronomy

Oct. 11, 2019 Rise Set
Actual Time 7:06 AM EDT 6:27 PM EDT
Civil Twilight 6:39 AM EDT 6:54 PM EDT
Nautical Twilight 6:07 AM EDT 7:25 PM EDT
Astronomical Twilight 5:36 AM EDT 7:57 PM EDT
Moon 5:55 PM EDT (10/11) 4:44 AM EDT (10/11)
Length of Visible Light 12h 14m
Length of Day
11h 20m
Waxing Gibbous, 96% of the Moon is Illuminated
Oct 11
Waxing Gibbous
Oct 13
Full
Oct 21
Last Quarter
Oct 27
New
Nov 4
First Quarter

Hourly Weather History & Observations

Time (EDT) Temp. Dew Point Humidity Pressure Visibility Wind Dir Wind Speed Gust Speed Precip Events Conditions
12:54 AM 55.9 °F 37.0 °F 49% 30.15 in 10.0 mi NNE 5.8 mph - N/A   Scattered Clouds
1:54 AM 53.1 °F 35.1 °F 50% 30.16 in 10.0 mi NNE 6.9 mph - N/A   Clear
2:54 AM 53.1 °F 32.0 °F 45% 30.13 in 10.0 mi NNE 5.8 mph - N/A   Clear
3:54 AM 52.0 °F 30.9 °F 45% 30.13 in 10.0 mi NNE 6.9 mph - N/A   Clear
4:54 AM 51.1 °F 32.0 °F 48% 30.14 in 10.0 mi North 5.8 mph - N/A   Clear
5:54 AM 50.0 °F 32.0 °F 50% 30.14 in 10.0 mi North 6.9 mph - N/A   Clear
6:54 AM 50.0 °F 34.0 °F 54% 30.14 in 10.0 mi NNE 6.9 mph - N/A   Clear
7:54 AM 52.0 °F 35.1 °F 53% 30.14 in 10.0 mi North 8.1 mph - N/A   Clear
8:54 AM 55.9 °F 36.0 °F 47% 30.14 in 10.0 mi NNE 11.5 mph 18.4 mph N/A   Clear
9:54 AM 63.0 °F 37.9 °F 40% 30.13 in 10.0 mi North 8.1 mph 18.4 mph N/A   Clear
10:54 AM 66.0 °F 41.0 °F 40% 30.12 in 10.0 mi NNE 9.2 mph - N/A   Mostly Cloudy
11:54 AM 68.0 °F 43.0 °F 40% 30.11 in 10.0 mi NNE 11.5 mph 20.7 mph N/A   Overcast
12:54 PM 68.0 °F 44.1 °F 42% 30.10 in 10.0 mi Variable 6.9 mph 20.7 mph N/A   Overcast
1:54 PM 68.0 °F 45.0 °F 43% 30.09 in 10.0 mi North - - N/A   Overcast
2:54 PM 68.0 °F 45.0 °F 43% 30.08 in 10.0 mi North 8.1 mph - N/A   Mostly Cloudy
3:54 PM 68.0 °F 44.1 °F 42% 30.07 in 10.0 mi NNE 8.1 mph - N/A   Overcast
4:54 PM 68.0 °F 43.0 °F 40% 30.06 in 10.0 mi NE 8.1 mph 16.1 mph N/A   Overcast
5:54 PM 64.9 °F 42.1 °F 43% 30.07 in 10.0 mi NE 9.2 mph 17.3 mph N/A   Overcast
6:54 PM 63.0 °F 39.9 °F 43% 30.08 in 10.0 mi NNE 4.6 mph - N/A   Overcast
7:54 PM 59.0 °F 39.9 °F 49% 30.07 in 10.0 mi NNE 4.6 mph - N/A   Partly Cloudy
8:54 PM 54.0 °F 43.0 °F 66% 30.07 in 10.0 mi Calm Calm - N/A   Clear
9:54 PM 54.0 °F 43.0 °F 66% 30.06 in 10.0 mi NE 3.5 mph - N/A   Clear
10:54 PM 52.0 °F 43.0 °F 71% 30.05 in 10.0 mi Calm Calm - N/A   Clear
11:54 PM 51.1 °F 43.0 °F 74% 30.04 in 10.0 mi Calm Calm - N/A   Clear